Regional Weather Roundup
Issued by NWS Kansas City/Pleasant Hill, MO

Home | Current Version | Previous Version | Graphics & Text | Print | Product List | Glossary Off
Versions: 1 2 3 4 5 6 7 8 9 10 11 12 13 14 15 16 17 18 19 20 21 22 23 24 25 26 27

000
ASUS43 KEAX 212310
RWREAX

WEATHER ROUNDUP FOR EASTERN KANSAS AND NORTHWEST MISSOURI
NATIONAL WEATHER SERVICE KANSAS CITY/PLEASANT HILL MO
600 PM CDT WED JUN 21 2017

KSZ040-057-103>105-MOZ028-029-037-043-220000-
...KANSAS CITY METROPOLITAN AREA...

CITY           SKY/WX    TMP DP  RH WIND       PRES   REMARKS
K.C. INTL      PTSUNNY   88  66  48 S16       29.83F HX  90
K.C. DOWNTOWN  PTSUNNY   91  66  43 S18G26    29.82F HX  93
LEES SUMMIT    SUNNY     89  66  46 S20G25    29.86F HX  91
OLATHE - IXD   MOSUNNY   88  66  48 S14G22    29.85F HX  90
OLATHE - OJC   MOSUNNY   87  65  47 S15       29.85F
LAWRENCE       MOSUNNY   89  64  43 S15       29.82F HX  90

$$

MOZ001>008-011>017-020>025-030>033-038>040-044>046-053-054-220000-
...NORTHERN AND CENTRAL MISSOURI...

CITY           SKY/WX    TMP DP  RH WIND       PRES   REMARKS
ST. JOSEPH     SUNNY     91  65  41 S15       29.79F HX  93
MOSBY          CLOUDY    88  63  42 S12G17    29.83F
WARRENSBURG    MOSUNNY   88  61  40 S13       29.87F
WHITEMAN AFB   MOSUNNY   89  66  47 SW13      29.86F HX  91
CLINTON        SUNNY     90  64  43 S10       29.89S HX  91
SEDALIA        SUNNY     89  69  51 S10       29.89F HX  93
WARSAW         NOT AVBL
CHILLICOTHE      N/A     90  65  43 S14G25    29.82F HX  92
KIRKSVILLE     PTSUNNY   87  66  49 SW15G21   29.85F

$$

MOZ041-047>049-056>058-063>065-088>090-097-220000-
...EASTERN AND SOUTHERN MISSOURI...

CITY           SKY/WX    TMP DP  RH WIND       PRES   REMARKS
ST. LOUIS INTL CLOUDY    93  64  38 S12       29.90F HX  94
SPIRIT OF STL  CLOUDY    91  69  48 S6        29.89F HX  96
COLUMBIA       SUNNY     88  67  49 S10       29.89F HX  91
JEFFERSON CITY MOSUNNY   91  64  40 S12       29.88F HX  92
ROLLA          CLOUDY    84  68  58 S15       29.92F
OSAGE BEACH    CLOUDY    88  68  51 S8        29.91F HX  91
SPRINGFIELD    PTSUNNY   85  63  47 S12       29.93S
BRANSON        PTSUNNY   84  66  54 SE7       29.96F
JOPLIN         CLOUDY    90  63  40 S9        29.89F HX  91
WEST PLAINS    CLOUDY    83  64  52 SE6       29.97F

$$

IAZ060-094-KSZ022-034>040-054-083-096-NEZ052-066-093-220000-
...KANSAS...SOUTHEAST NEBRASKA AND IOWA...

CITY           SKY/WX    TMP DP  RH WIND       PRES   REMARKS
TOPEKA         MOSUNNY   89  63  41 S13G25    29.80F HX  90
MANHATTAN      SUNNY     95  61  32 S15G26    29.75F HX  95
EMPORIA        MOSUNNY   87  62  43 S22G30    29.83F
CHANUTE        SUNNY     89  64  43 S15       29.87F HX  90
WICHITA        CLOUDY    92  55  28 S23G32    29.81F HX  90
OMAHA          MOSUNNY   96  64  34 S20G31    29.67S HX  98
LINCOLN        SUNNY     95  65  37 S18G26    29.68F HX  97
FALLS CITY     SUNNY     91  59  33 S17G30    29.75F HX  90
LAMONI         SUNNY     88  66  48 S15G29    29.78F HX  90
DES MOINES     MOSUNNY   91  62  37 S17G24    29.74R HX  91

$$





USA.gov is the U.S. government's official web portal to all federal, state and local government web resources and services.